| time (UTC) | temp C | wind direction | speed KPH | gust KPH | rain 1hr cm | rain 24hr cm | rain mn cm | humidity % | barometer mb |
| 20260510213045 | 4 | 0 | 0.0 | 0.0 | 0.00 | 0.00 | 0.00 | 35 | 1016.7 |
| 20260510211535 | 5 | 0 | 0.0 | 0.0 | 0.00 | 0.00 | 0.00 | 43 | 1017.0 |
| 20260510210047 | 5 | 0 | 0.0 | 0.0 | 0.00 | 0.00 | 0.00 | 47 | 1017.1 |
| 20260510204548 | 5 | 0 | 0.0 | 0.0 | 0.00 | 0.00 | 0.00 | 47 | 1017.2 |
| 20260510203039 | 6 | 0 | 0.0 | 1.6 | 0.00 | 0.00 | 0.00 | 49 | 1017.2 |
| 20260510201540 | 6 | 0 | 0.0 | 0.0 | 0.00 | 0.00 | 0.00 | 48 | 1017.0 |
| 20260510200037 | 7 | 0 | 0.0 | 3.2 | 0.00 | 0.00 | 0.00 | 46 | 1016.9 |
| 20260510194534 | 8 | 0 | 0.0 | 8.0 | 0.00 | 0.00 | 0.00 | 44 | 1017.1 |
| 20260510193036 | 8 | 35 | 1.6 | 11.3 | 0.00 | 0.00 | 0.00 | 41 | 1016.9 |
| 20260510191543 | 8 | 25 | 3.2 | 11.3 | 0.00 | 0.00 | 0.00 | 40 | 1016.8 |
| 20260510190043 | 9 | 0 | 0.0 | 4.8 | 0.00 | 0.00 | 0.00 | 40 | 1016.7 |
| 20260510184542 | 10 | 15 | 3.2 | 8.0 | 0.00 | 0.00 | 0.00 | 39 | 1016.9 |
| 20260510183035 | 10 | 327 | 3.2 | 11.3 | 0.00 | 0.00 | 0.00 | 39 | 1016.9 |
| 20260510181601 | 11 | 18 | 3.2 | 9.7 | 0.00 | 0.00 | 0.00 | 38 | 1016.6 |
| 20260510180043 | 11 | 0 | 1.6 | 9.7 | 0.00 | 0.00 | 0.00 | 37 | 1017.0 |
| 20260510174552 | 12 | 287 | 1.6 | 11.3 | 0.00 | 0.00 | 0.00 | 35 | 1016.9 |
| 20260510173034 | 13 | 0 | 1.6 | 11.3 | 0.00 | 0.00 | 0.00 | 32 | 1016.8 |
| 20260510171536 | 13 | 27 | 1.6 | 12.9 | 0.00 | 0.00 | 0.00 | 31 | 1017.0 |
| 20260510170036 | 14 | 322 | 4.8 | 11.3 | 0.00 | 0.00 | 0.00 | 29 | 1017.2 |
| 20260510164542 | 14 | 336 | 3.2 | 11.3 | 0.00 | 0.00 | 0.00 | 28 | 1017.1 |
| 20260510163038 | 15 | 60 | 1.6 | 9.7 | 0.00 | 0.00 | 0.00 | 27 | 1017.2 |
| 20260510161613 | 15 | 30 | 0.0 | 9.7 | 0.00 | 0.00 | 0.00 | 27 | 1017.2 |
| 20260510160040 | 14 | 319 | 4.8 | 11.3 | 0.00 | 0.00 | 0.00 | 28 | 1017.5 |
| 20260510154543 | 13 | 330 | 3.2 | 9.7 | 0.00 | 0.00 | 0.00 | 29 | 1017.6 |
| 20260510153047 | 13 | 358 | 1.6 | 6.4 | 0.00 | 0.00 | 0.00 | 28 | 1017.8 |
| 20260510151544 | 14 | 68 | 3.2 | 14.5 | 0.00 | 0.00 | 0.00 | 27 | 1017.9 |
| 20260510150038 | 13 | 0 | 1.6 | 12.9 | 0.00 | 0.00 | 0.00 | 29 | 1018.0 |
| 20260510144535 | 13 | 313 | 3.2 | 8.0 | 0.00 | 0.00 | 0.00 | 29 | 1018.1 |
| 20260510143034 | 13 | 221 | 1.6 | 8.0 | 0.00 | 0.00 | 0.00 | 28 | 1018.3 |
| 20260510141538 | 13 | 305 | 1.6 | 6.4 | 0.00 | 0.00 | 0.00 | 29 | 1018.5 |
| 20260510140040 | 13 | 120 | 3.2 | 8.0 | 0.00 | 0.00 | 0.00 | 28 | 1018.6 |
| 20260510134542 | 13 | 309 | 3.2 | 12.9 | 0.00 | 0.00 | 0.00 | 26 | 1018.7 |
| 20260510133038 | 13 | 310 | 3.2 | 9.7 | 0.00 | 0.00 | 0.00 | 29 | 1018.8 |
| 20260510131538 | 13 | 294 | 3.2 | 9.7 | 0.00 | 0.00 | 0.00 | 26 | 1018.8 |
| 20260510130037 | 14 | 15 | 0.0 | 4.8 | 0.00 | 0.00 | 0.00 | 25 | 1019.2 |
| 20260510124538 | 13 | 120 | 4.8 | 12.9 | 0.00 | 0.05 | 0.00 | 25 | 1019.2 |
| 20260510123036 | 13 | 148 | 4.8 | 12.9 | 0.00 | 0.05 | 0.00 | 24 | 1019.4 |
| 20260510121535 | 13 | 82 | 3.2 | 16.1 | 0.00 | 0.05 | 0.00 | 22 | 1019.4 |
| 20260510120035 | 13 | 306 | 3.2 | 11.3 | 0.00 | 0.05 | 0.00 | 23 | 1019.6 |
| 20260510114540 | 12 | 174 | 4.8 | 17.7 | 0.00 | 0.91 | 0.00 | 21 | 1019.8 |
| 20260510113038 | 12 | 333 | 6.4 | 14.5 | 0.00 | 0.91 | 0.00 | 21 | 1019.9 |
| 20260510111539 | 12 | 326 | 3.2 | 9.7 | 0.00 | 0.91 | 0.00 | 20 | 1020.3 |
| 20260510110037 | 12 | 348 | 1.6 | 8.0 | 0.00 | 0.91 | 0.00 | 19 | 1020.6 |
| 20260510104539 | 11 | 302 | 4.8 | 14.5 | 0.00 | 0.91 | 0.00 | 19 | 1020.6 |
| 20260510103043 | 11 | 21 | 3.2 | 12.9 | 0.00 | 0.91 | 0.00 | 18 | 1020.7 |
| 20260510101539 | 11 | 344 | 1.6 | 6.4 | 0.00 | 0.91 | 0.00 | 15 | 1020.8 |
| 20260510100052 | 9 | 93 | 1.6 | 6.4 | 0.00 | 0.91 | 0.00 | 19 | 1020.9 |
| 20260510094534 | 10 | 340 | 3.2 | 9.7 | 0.00 | 0.91 | 0.00 | 17 | 1021.3 |
| 20260510093045 | 10 | 120 | 0.0 | 8.0 | 0.00 | 0.91 | 0.00 | 15 | 1021.3 |
| 20260510091539 | 9 | 279 | 3.2 | 11.3 | 0.00 | 0.91 | 0.00 | 17 | 1021.3 |
| 20260510090045 | 9 | 310 | 1.6 | 14.5 | 0.00 | 0.91 | 0.00 | 17 | 1021.4 |
| 20260510084539 | 9 | 353 | 3.2 | 11.3 | 0.00 | 0.91 | 0.00 | 15 | 1021.3 |
| 20260510083043 | 9 | 356 | 4.8 | 14.5 | 0.00 | 0.91 | 0.00 | 14 | 1021.3 |
| 20260510081539 | 8 | 344 | 3.2 | 12.9 | 0.00 | 0.91 | 0.00 | 13 | 1021.1 |
| 20260510080037 | 8 | 291 | 3.2 | 9.7 | 0.00 | 0.91 | 0.00 | 13 | 1021.1 |
| 20260510074542 | 8 | 317 | 3.2 | 14.5 | 0.00 | 0.91 | 0.00 | 10 | 1021.1 |
| 20260510073039 | 8 | 333 | 3.2 | 11.3 | 0.00 | 0.91 | 0.00 | 8 | 1021.0 |
| 20260510071548 | 8 | 333 | 3.2 | 16.1 | 0.00 | 0.91 | 0.00 | 7 | 1021.2 |
| 20260510070039 | 7 | 328 | 3.2 | 8.0 | 0.00 | 0.91 | 0.00 | 4 | 1021.0 |
| 20260510064534 | 7 | 53 | 1.6 | 8.0 | 0.00 | 0.91 | 0.00 | 2 | 1021.0 |
| 20260510063035 | 7 | 314 | 3.2 | 11.3 | 0.00 | 0.91 | 0.00 | 2 | 1021.0 |
| 20260510061548 | 7 | 280 | 1.6 | 4.8 | 0.00 | 0.91 | 0.00 | 100 | 1020.9 |
| 20260510060041 | 7 | 0 | 1.6 | 9.7 | 0.00 | 0.91 | 0.00 | 100 | 1020.9 |
| 20260510054537 | 7 | 0 | 0.0 | 3.2 | 0.00 | 0.91 | 0.00 | 100 | 1020.9 |
| 20260510053037 | 7 | 0 | 0.0 | 4.8 | 0.00 | 0.91 | 0.00 | 100 | 1020.8 |
| 20260510051537 | 6 | 0 | 0.0 | 0.0 | 0.00 | 0.91 | 0.00 | 100 | 1020.8 |
| 20260510050038 | 6 | 0 | 0.0 | 0.0 | 0.00 | 0.91 | 0.00 | 100 | 1020.8 |
| 20260510044537 | 7 | 0 | 0.0 | 11.3 | 0.00 | 0.91 | 0.00 | 100 | 1020.7 |
| 20260510043040 | 6 | 0 | 0.0 | 6.4 | 0.00 | 0.91 | 0.00 | 100 | 1020.7 |
| 20260510041537 | 6 | 212 | 0.0 | 3.2 | 0.00 | 0.91 | 0.00 | 100 | 1020.9 |
| 20260510040036 | 7 | 0 | 0.0 | 3.2 | 0.00 | 0.91 | 0.00 | 100 | 1020.9 |
| 20260510034540 | 7 | 0 | 0.0 | 4.8 | 0.00 | 0.91 | 0.00 | 100 | 1020.9 |
| 20260510033041 | 7 | 103 | 0.0 | 3.2 | 0.00 | 0.91 | 0.00 | 100 | 1021.2 |
| 20260510031548 | 7 | 0 | 0.0 | 8.0 | 0.00 | 0.91 | 0.00 | 100 | 1021.2 |
| 20260510030037 | 7 | 0 | 0.0 | 1.6 | 0.00 | 0.91 | 0.00 | 100 | 1021.4 |
| 20260510024545 | 7 | 0 | 1.6 | 3.2 | 0.00 | 0.91 | 0.00 | 100 | 1021.5 |
| 20260510023037 | 7 | 0 | 0.0 | 4.8 | 0.00 | 0.91 | 0.00 | 100 | 1021.6 |
| 20260510021534 | 7 | 134 | 0.0 | 0.0 | 0.00 | 0.91 | 0.00 | 100 | 1021.5 |
| 20260510020039 | 7 | 0 | 0.0 | 0.0 | 0.00 | 0.91 | 0.00 | 100 | 1021.8 |
| 20260510014537 | 7 | 0 | 0.0 | 0.0 | 0.00 | 0.91 | 0.00 | 100 | 1021.7 |
| 20260510013038 | 8 | 0 | 0.0 | 0.0 | 0.00 | 0.91 | 0.00 | 100 | 1021.7 |
| 20260510011547 | 8 | 106 | 1.6 | 14.5 | 0.00 | 0.91 | 0.00 | 100 | 1021.7 |
| 20260510010037 | 8 | 50 | 1.6 | 8.0 | 0.00 | 0.91 | 0.00 | 100 | 1021.4 |
| 20260510004545 | 8 | 0 | 1.6 | 8.0 | 0.00 | 0.91 | 0.00 | 100 | 1021.3 |
| 20260510003058 | 8 | 0 | 3.2 | 8.0 | 0.00 | 0.91 | 0.00 | 100 | 1021.2 |
| 20260510001540 | 8 | 120 | 1.6 | 9.7 | 0.00 | 0.91 | 0.00 | 100 | 1021.4 |
| 20260510000040 | 8 | 0 | 0.0 | 0.0 | 0.00 | 0.91 | 0.00 | 100 | 1021.4 |
| 20260509234552 | 8 | 0 | 0.0 | 0.0 | 0.00 | 0.91 | 0.00 | 100 | 1021.2 |
| 20260509233034 | 9 | 0 | 0.0 | 3.2 | 0.00 | 0.91 | 0.00 | 100 | 1021.4 |
| 20260509231550 | 9 | 0 | 0.0 | 12.9 | 0.00 | 0.91 | 0.00 | 100 | 1021.4 |
| 20260509230037 | 9 | 360 | 0.0 | 1.6 | 0.00 | 0.91 | 0.00 | 100 | 1021.3 |
| 20260509224539 | 9 | 338 | 0.0 | 9.7 | 0.00 | 0.91 | 0.91 | 100 | 1021.1 |
| 20260509223037 | 10 | 315 | 1.6 | 6.4 | 0.00 | 0.91 | 0.91 | 100 | 1021.0 |
| 20260509221541 | 10 | 277 | 3.2 | 16.1 | 0.00 | 0.91 | 0.91 | 100 | 1021.1 |
| 20260509220038 | 10 | 302 | 1.6 | 8.0 | 0.00 | 0.91 | 0.91 | 100 | 1020.9 |
| 20260509214538 | 9 | 62 | 0.0 | 8.0 | 0.00 | 0.91 | 0.91 | 100 | 1020.8 |